TimeCDT,TemperatureF,Dew PointF,Humidity,Sea Level PressureIn,VisibilityMPH,Wind Direction,Wind SpeedMPH,Gust SpeedMPH,PrecipitationIn,Events,Conditions,WindDirDegrees,DateUTC
12:53 AM,73.0,64.9,76,30.15,10.0,South,11.5,-,N/A,,Clear,180,2013-08-25 05:53:00
1:53 AM,73.0,62.1,68,30.15,10.0,South,12.7,-,N/A,,Clear,190,2013-08-25 06:53:00
2:53 AM,72.0,62.1,71,30.16,10.0,South,10.4,-,N/A,,Clear,190,2013-08-25 07:53:00
3:53 AM,72.0,63.0,73,30.16,10.0,South,11.5,-,N/A,,Clear,190,2013-08-25 08:53:00
4:53 AM,72.0,63.0,73,30.16,10.0,SSW,10.4,-,N/A,,Clear,200,2013-08-25 09:53:00
5:53 AM,71.1,64.0,78,30.17,10.0,South,9.2,-,N/A,,Clear,190,2013-08-25 10:53:00
6:53 AM,72.0,64.0,76,30.19,10.0,SSW,8.1,-,N/A,,Clear,200,2013-08-25 11:53:00
7:53 AM,73.0,66.0,79,30.19,10.0,SSW,5.8,-,N/A,,Clear,200,2013-08-25 12:53:00
8:53 AM,75.0,66.9,76,30.18,10.0,SW,6.9,-,N/A,,Clear,220,2013-08-25 13:53:00
9:53 AM,79.0,66.9,66,30.17,10.0,Variable,5.8,-,N/A,,Clear,0,2013-08-25 14:53:00
10:53 AM,82.0,66.9,60,30.17,10.0,WSW,6.9,-,N/A,,Clear,240,2013-08-25 15:53:00
11:53 AM,84.0,68.0,58,30.15,10.0,WSW,6.9,-,N/A,,Clear,240,2013-08-25 16:53:00
12:53 PM,84.9,69.1,59,30.14,10.0,SW,8.1,18.4,N/A,,Clear,230,2013-08-25 17:53:00
1:53 PM,86.0,70.0,59,30.12,10.0,SW,8.1,-,N/A,,Partly Cloudy,230,2013-08-25 18:53:00
2:53 PM,87.1,69.1,55,30.11,10.0,SSW,11.5,-,N/A,,Partly Cloudy,200,2013-08-25 19:53:00
3:53 PM,88.0,70.0,55,30.09,10.0,SW,10.4,18.4,N/A,,Partly Cloudy,230,2013-08-25 20:53:00
4:53 PM,88.0,66.9,49,30.07,10.0,SSW,11.5,18.4,N/A,,Partly Cloudy,210,2013-08-25 21:53:00
5:53 PM,86.0,66.0,51,30.08,10.0,SW,10.4,16.1,N/A,,Partly Cloudy,220,2013-08-25 22:53:00
6:53 PM,84.9,66.0,53,30.08,10.0,SSW,6.9,-,N/A,,Clear,200,2013-08-25 23:53:00
7:53 PM,82.9,64.9,54,30.09,10.0,SSW,5.8,-,N/A,,Clear,200,2013-08-26 00:53:00
8:53 PM,81.0,64.9,58,30.10,10.0,South,9.2,-,N/A,,Clear,190,2013-08-26 01:53:00
9:53 PM,80.1,66.0,62,30.11,10.0,SW,5.8,-,N/A,,Clear,220,2013-08-26 02:53:00
10:53 PM,78.1,66.0,66,30.11,10.0,SW,5.8,-,N/A,,Clear,220,2013-08-26 03:53:00
11:53 PM,78.1,66.0,66,30.09,10.0,SSW,6.9,-,N/A,,Clear,200,2013-08-26 04:53:00